Eagle, AK

5:04 PM AKDT on October 22, 2017 (GMT -0800)
Eagle

Weather History for PAEG - November, 2011

Change the Weather History Date:

Sunday, November 13, 2011

  Actual Average (PABN) Record (PABN)
Temperature  
Mean Temperature 3 °F -  
Max Temperature 6 °F 11 °F 26 °F (1997)
Min Temperature 0 °F 4 °F -11 °F (2006)
Degree Days  
Heating Degree Days 62    
Moisture  
Dew Point -2 °F    
Average Humidity 79    
Maximum Humidity 85    
Minimum Humidity 60    
Precipitation  
Precipitation 0.01 in - - ()
Sea Level Pressure  
Sea Level Pressure 29.44 in    
Wind  
Wind Speed 0 mph (South)    
Max Wind Speed 6 mph    
Max Gust Speed -    
Visibility 6 miles    
Events Snow    
Averages and records for this station are not official NWS values.
T = Trace of Precipitation, MM = Missing Value Source: NWS Daily Summary

Daily Weather History Graph

Daily Weather History Graph

Search for Another Location

Airport or City:

Trip Planner

Search our weather history database for the weather conditions in past years. The results will help you decide how hot, cold, wet, or windy it might be!

Date:

Astronomy

Nov. 13, 2011 Rise Set
Actual Time 8:52 AM AKST 3:24 PM AKST
Civil Twilight 7:51 AM AKST 4:25 PM AKST
Nautical Twilight 6:49 AM AKST 5:27 PM AKST
Astronomical Twilight 5:51 AM AKST 6:24 PM AKST
Moon 4:41 PM AKST (11/13) 12:33 PM AKST (11/13)
Length of Visible Light 8h 34m
Length of Day
6h 32m
Waning Gibbous, 92% of the Moon is Illuminated
Nov 13
Waning Gibbous
Nov 18
Last Quarter
Nov 24
New
Dec 2
First Quarter
Dec 10
Full

Hourly Weather History & Observations

Time (AKST) Temp. Windchill Dew Point Humidity Pressure Visibility Wind Dir Wind Speed Gust Speed Precip Events Conditions
12:02 AM 5.0 °F - -0.4 °F 78% 29.09 in 10.0 mi Calm Calm - N/A   Overcast
12:53 AM 5.0 °F -2.1 °F -0.9 °F 76% 29.18 in 9.0 mi West 3.5 mph - N/A   Overcast
1:53 AM 1.9 °F - -2.9 °F 80% 29.20 in 10.0 mi Calm Calm - 0.00 in   Partly Cloudy
3:53 AM 1.9 °F - -2.0 °F 83% 29.24 in 10.0 mi Calm Calm - N/A   Overcast
4:53 AM -0.0 °F - -4.0 °F 83% 29.27 in 6.0 mi Calm Calm - 0.00 in   Overcast
5:00 AM -0.4 °F - -4.0 °F 85% 29.21 in 8.0 mi Calm Calm - N/A   Overcast
5:53 AM -0.0 °F - -4.0 °F 83% 29.29 in 10.0 mi Calm Calm - N/A   Overcast
6:53 AM 1.9 °F - -2.0 °F 83% 29.31 in 3.0 mi Calm Calm - 0.00 in Snow Light Snow
7:53 AM 3.0 °F - -0.9 °F 84% 29.34 in 4.0 mi Calm Calm - 0.00 in Snow Light Snow
8:21 AM 3.2 °F - -0.4 °F 85% 29.30 in 2.5 mi Calm Calm - 0.00 in Snow Light Snow
8:34 AM 3.2 °F - -0.4 °F 85% 29.30 in 2.0 mi Calm Calm - 0.00 in Snow Light Snow
8:49 AM 3.2 °F - -0.4 °F 85% 29.31 in 2.5 mi Calm Calm - 0.00 in Snow Light Snow
8:53 AM 3.9 °F - -0.9 °F 80% 29.37 in 4.0 mi Calm Calm - 0.01 in Snow Light Snow
9:53 AM 3.9 °F - -0.9 °F 80% 29.39 in 9.0 mi Calm Calm - 0.00 in   Mostly Cloudy
10:53 AM 5.0 °F - -0.0 °F 80% 29.41 in 10.0 mi Calm Calm - N/A   Mostly Cloudy
11:53 AM 6.1 °F -2.8 °F -5.1 °F 60% 29.43 in 10.0 mi Variable 4.6 mph - N/A   Mostly Cloudy
12:53 PM 6.1 °F -4.3 °F -5.1 °F 60% 29.45 in 10.0 mi East 5.8 mph - N/A   Overcast
1:53 PM 6.1 °F - -4.0 °F 63% 29.47 in 10.0 mi Calm Calm - N/A   Overcast
2:53 PM 5.0 °F - -4.0 °F 66% 29.49 in 10.0 mi Calm Calm - N/A   Overcast
3:53 PM 6.1 °F - -2.9 °F 67% 29.51 in 3.0 mi Calm Calm - 0.00 in Snow Light Snow
4:03 PM 5.0 °F - -2.2 °F 72% 29.45 in 2.5 mi Calm Calm - 0.00 in Snow Light Snow
4:38 PM 5.0 °F - -0.4 °F 78% 29.47 in 3.0 mi Calm Calm - 0.00 in Snow Light Snow
4:53 PM 5.0 °F - -0.0 °F 80% 29.55 in 3.0 mi Calm Calm - 0.00 in Snow Light Snow
5:53 PM 3.9 °F - -0.0 °F 84% 29.57 in 6.0 mi Calm Calm - 0.00 in Snow Light Snow
6:53 PM 3.9 °F - -0.0 °F 84% 29.60 in 4.0 mi Calm Calm - 0.00 in Snow Light Snow
7:53 PM 3.9 °F - -0.0 °F 84% 29.62 in 5.0 mi Calm Calm - 0.00 in   Overcast
8:53 PM 5.0 °F - -0.0 °F 80% 29.63 in 3.0 mi Calm Calm - N/A   Haze
9:32 PM 3.2 °F - -0.4 °F 85% 29.58 in 2.0 mi Calm Calm - N/A   Overcast
9:44 PM 3.2 °F - -0.4 °F 85% 29.58 in 1.8 mi Calm Calm - 0.00 in Snow Light Snow
9:53 PM 3.9 °F - -0.9 °F 80% 29.65 in 2.5 mi Calm Calm - 0.00 in   Haze
10:11 PM 3.2 °F - -0.4 °F 85% 29.59 in 3.0 mi Calm Calm - N/A   Haze
10:20 PM 3.2 °F - -0.4 °F 85% 29.59 in 2.5 mi Calm Calm - N/A   Haze
10:31 PM 3.2 °F - -0.4 °F 85% 29.60 in 2.5 mi Calm Calm - N/A   Overcast
10:53 PM 3.0 °F - -0.9 °F 84% 29.67 in 3.0 mi Calm Calm - N/A   Overcast
11:53 PM 1.0 °F - -2.9 °F 83% 29.68 in 10.0 mi Calm Calm - 0.00 in   Overcast